Time,TemperatureF,DewpointF,PressureIn,WindDirection,WindDirectionDegrees,WindSpeedMPH,WindSpeedGustMPH,Humidity,HourlyPrecipIn,Conditions,Clouds,dailyrainin,SoftwareType,DateUTC
2013-02-22 00:01:00,43.9,34.4,30.02,West,270,5.3,-999.0,69,-99.99,,,0.00,Acu-Link.com,2013-02-22 08:01:00,
2013-02-22 00:16:00,43.9,34.4,30.02,West,270,3.7,-999.0,69,-99.99,,,0.00,Acu-Link.com,2013-02-22 08:16:00,
2013-02-22 00:31:00,44.1,34.6,30.03,WNW,292,4.2,-999.0,69,-99.99,,,0.00,Acu-Link.com,2013-02-22 08:31:00,
2013-02-22 00:46:00,44.6,34.7,30.03,West,270,4.2,-999.0,68,-99.99,,,0.00,Acu-Link.com,2013-02-22 08:46:00,
2013-02-22 01:20:00,43.7,34.6,30.03,West,270,4.7,-999.0,70,-99.99,,,0.00,Acu-Link.com,2013-02-22 09:20:00,
2013-02-22 01:35:00,42.6,34.6,30.03,West,270,5.8,-999.0,73,-99.99,,,0.00,Acu-Link.com,2013-02-22 09:35:00,
2013-02-22 01:50:00,42.4,34.4,30.03,West,270,5.3,-999.0,73,-99.99,,,0.00,Acu-Link.com,2013-02-22 09:50:00,
2013-02-22 02:05:00,42.3,34.6,30.03,WNW,292,5.8,-999.0,74,-99.99,,,0.00,Acu-Link.com,2013-02-22 10:05:00,
2013-02-22 02:20:00,41.9,34.6,30.02,West,270,6.3,-999.0,75,-99.99,,,0.00,Acu-Link.com,2013-02-22 10:20:00,
2013-02-22 02:35:00,42.3,34.6,30.03,West,270,6.8,-999.0,74,-99.99,,,0.00,Acu-Link.com,2013-02-22 10:35:00,
2013-02-22 02:51:00,41.4,34.4,30.03,WNW,292,6.3,-999.0,76,-99.99,,,0.00,Acu-Link.com,2013-02-22 10:51:00,
2013-02-22 03:06:00,41.2,34.5,30.04,WNW,292,5.8,-999.0,77,-99.99,,,0.00,Acu-Link.com,2013-02-22 11:06:00,
2013-02-22 03:21:00,40.6,34.6,30.03,WSW,247,5.3,-999.0,79,-99.99,,,0.00,Acu-Link.com,2013-02-22 11:21:00,
2013-02-22 03:37:00,40.6,34.6,30.03,NW,315,5.8,-999.0,79,-99.99,,,0.00,Acu-Link.com,2013-02-22 11:37:00,
2013-02-22 03:52:00,41.0,34.4,30.03,WNW,292,6.3,-999.0,77,-99.99,,,0.00,Acu-Link.com,2013-02-22 11:52:00,
2013-02-22 04:07:00,42.6,33.9,30.02,SSW,202,4.7,-999.0,71,-99.99,,,0.00,Acu-Link.com,2013-02-22 12:07:00,
2013-02-22 04:22:00,42.8,33.7,30.04,West,270,1.7,-999.0,70,-99.99,,,0.00,Acu-Link.com,2013-02-22 12:22:00,
2013-02-22 04:37:00,41.7,34.4,30.03,South,180,7.8,-999.0,75,-99.99,,,0.00,Acu-Link.com,2013-02-22 12:37:00,
2013-02-22 04:53:00,41.2,34.2,30.05,WNW,292,5.8,-999.0,76,-99.99,,,0.00,Acu-Link.com,2013-02-22 12:53:00,
2013-02-22 05:08:00,40.6,34.0,30.05,West,270,5.8,-999.0,77,-99.99,,,0.00,Acu-Link.com,2013-02-22 13:08:00,
2013-02-22 05:23:00,40.5,34.2,30.06,West,270,5.8,-999.0,78,-99.99,,,0.00,Acu-Link.com,2013-02-22 13:23:00,
2013-02-22 05:38:00,40.5,34.2,30.05,WSW,247,4.2,-999.0,78,-99.99,,,0.00,Acu-Link.com,2013-02-22 13:38:00,
2013-02-22 05:53:00,41.9,32.8,30.05,West,270,3.2,-999.0,70,-99.99,,,0.00,Acu-Link.com,2013-02-22 13:53:00,
2013-02-22 06:09:00,43.2,31.9,30.05,NE,45,0.0,-999.0,64,-99.99,,,0.00,Acu-Link.com,2013-02-22 14:09:00,
2013-02-22 06:24:00,44.4,31.4,30.05,ENE,67,2.7,-999.0,60,-99.99,,,0.00,Acu-Link.com,2013-02-22 14:24:00,
2013-02-22 06:39:00,46.2,30.5,30.05,NE,45,1.7,-999.0,54,-99.99,,,0.00,Acu-Link.com,2013-02-22 14:39:00,
2013-02-22 06:54:00,43.9,33.3,30.05,West,270,3.2,-999.0,66,-99.99,,,0.00,Acu-Link.com,2013-02-22 14:54:00,
2013-02-22 07:09:00,41.0,33.0,30.06,WSW,247,3.7,-999.0,73,-99.99,,,0.00,Acu-Link.com,2013-02-22 15:09:00,
2013-02-22 07:25:00,40.5,33.2,30.07,WNW,292,3.7,-999.0,75,-99.99,,,0.00,Acu-Link.com,2013-02-22 15:25:00,
2013-02-22 07:40:00,41.4,33.1,30.07,West,270,4.7,-999.0,72,-99.99,,,0.00,Acu-Link.com,2013-02-22 15:40:00,
2013-02-22 07:55:00,42.6,32.8,30.07,West,270,4.2,-999.0,68,-99.99,,,0.00,Acu-Link.com,2013-02-22 15:55:00,
2013-02-22 08:10:00,45.5,33.2,30.08,West,270,4.7,-999.0,62,-99.99,,,0.00,Acu-Link.com,2013-02-22 16:10:00,
2013-02-22 08:26:00,45.9,33.6,30.08,WSW,247,3.2,-999.0,62,-99.99,,,0.00,Acu-Link.com,2013-02-22 16:26:00,
2013-02-22 08:41:00,46.0,33.3,30.08,West,270,5.3,-999.0,61,-99.99,,,0.00,Acu-Link.com,2013-02-22 16:41:00,
2013-02-22 08:56:00,50.7,34.7,30.08,West,270,3.2,-999.0,54,-99.99,,,0.00,Acu-Link.com,2013-02-22 16:56:00,
2013-02-22 09:11:00,55.2,35.9,30.09,SW,225,2.2,-999.0,48,-99.99,,,0.00,Acu-Link.com,2013-02-22 17:11:00,
2013-02-22 09:27:00,57.4,35.7,30.09,West,270,2.7,-999.0,44,-99.99,,,0.00,Acu-Link.com,2013-02-22 17:27:00,
2013-02-22 09:42:00,60.1,35.7,30.10,SW,225,2.7,-999.0,40,-99.99,,,0.00,Acu-Link.com,2013-02-22 17:42:00,
2013-02-22 09:57:00,58.8,32.6,30.09,West,270,4.7,-999.0,37,-99.99,,,0.00,Acu-Link.com,2013-02-22 17:57:00,
2013-02-22 10:12:00,58.6,34.4,30.10,West,270,7.8,-999.0,40,-99.99,,,0.00,Acu-Link.com,2013-02-22 18:12:00,
2013-02-22 10:28:00,60.6,34.9,30.10,West,270,6.8,-999.0,38,-99.99,,,0.00,Acu-Link.com,2013-02-22 18:28:00,
2013-02-22 10:43:00,61.7,36.5,30.10,West,270,7.8,-999.0,39,-99.99,,,0.00,Acu-Link.com,2013-02-22 18:43:00,
2013-02-22 10:58:00,60.8,35.7,30.12,West,270,4.7,-999.0,39,-99.99,,,0.00,Acu-Link.com,2013-02-22 18:58:00,
2013-02-22 11:13:00,62.6,34.6,30.12,SW,225,4.2,-999.0,35,-99.99,,,0.00,Acu-Link.com,2013-02-22 19:13:00,
2013-02-22 11:28:00,63.3,34.5,30.13,SW,225,4.2,-999.0,34,-99.99,,,0.00,Acu-Link.com,2013-02-22 19:28:00,
2013-02-22 11:44:00,65.7,35.8,30.12,West,270,5.8,-999.0,33,-99.99,,,0.00,Acu-Link.com,2013-02-22 19:44:00,
2013-02-22 11:59:00,65.3,33.9,30.11,West,270,7.8,-999.0,31,-99.99,,,0.00,Acu-Link.com,2013-02-22 19:59:00,
2013-02-22 12:14:00,64.6,34.8,30.08,West,270,5.3,-999.0,33,-99.99,,,0.00,Acu-Link.com,2013-02-22 20:14:00,
2013-02-22 12:29:00,61.7,33.8,30.09,South,180,7.8,-999.0,35,-99.99,,,0.00,Acu-Link.com,2013-02-22 20:29:00,
2013-02-22 12:44:00,60.4,31.9,30.10,West,270,10.9,-999.0,34,-99.99,,,0.00,Acu-Link.com,2013-02-22 20:44:00,
2013-02-22 13:00:00,62.1,31.1,30.10,SE,135,11.4,-999.0,31,-99.99,,,0.00,Acu-Link.com,2013-02-22 21:00:00,
2013-02-22 13:15:00,65.3,35.5,30.08,West,270,12.5,-999.0,33,-99.99,,,0.00,Acu-Link.com,2013-02-22 21:15:00,
2013-02-22 13:30:00,63.7,35.5,30.07,SW,225,10.9,-999.0,35,-99.99,,,0.00,Acu-Link.com,2013-02-22 21:30:00,
2013-02-22 13:45:00,63.5,36.8,30.05,ESE,112,9.9,-999.0,37,-99.99,,,0.00,Acu-Link.com,2013-02-22 21:45:00,
2013-02-22 14:01:00,63.3,37.3,30.02,WNW,292,8.3,-999.0,38,-99.99,,,0.00,Acu-Link.com,2013-02-22 22:01:00,
2013-02-22 14:16:00,63.9,37.1,30.00,West,270,8.9,-999.0,37,-99.99,,,0.00,Acu-Link.com,2013-02-22 22:16:00,
2013-02-22 14:31:00,66.0,38.3,30.00,SSE,157,8.3,-999.0,36,-99.99,,,0.00,Acu-Link.com,2013-02-22 22:31:00,
2013-02-22 14:46:00,63.9,37.1,30.00,South,180,7.3,-999.0,37,-99.99,,,0.00,Acu-Link.com,2013-02-22 22:46:00,
2013-02-22 15:02:00,64.2,37.4,30.01,West,270,12.5,-999.0,37,-99.99,,,0.00,Acu-Link.com,2013-02-22 23:02:00,
2013-02-22 15:17:00,63.7,36.9,30.02,West,270,12.5,-999.0,37,-99.99,,,0.00,Acu-Link.com,2013-02-22 23:17:00,
2013-02-22 15:32:00,64.6,37.7,30.02,WNW,292,10.4,-999.0,37,-99.99,,,0.00,Acu-Link.com,2013-02-22 23:32:00,
2013-02-22 15:47:00,62.1,36.8,30.02,WSW,247,11.4,-999.0,39,-99.99,,,0.00,Acu-Link.com,2013-02-22 23:47:00,
2013-02-22 16:03:00,61.3,38.0,30.02,SW,225,12.5,-999.0,42,-99.99,,,0.00,Acu-Link.com,2013-02-23 00:03:00,
2013-02-22 16:18:00,59.9,37.9,30.02,SW,225,11.9,-999.0,44,-99.99,,,0.00,Acu-Link.com,2013-02-23 00:18:00,
2013-02-22 16:33:00,59.9,37.9,30.02,West,270,9.9,-999.0,44,-99.99,,,0.00,Acu-Link.com,2013-02-23 00:33:00,
2013-02-22 16:48:00,58.8,39.7,30.02,SW,225,10.9,-999.0,49,-99.99,,,0.00,Acu-Link.com,2013-02-23 00:48:00,
2013-02-22 17:03:00,58.6,39.0,30.02,West,270,7.3,-999.0,48,-99.99,,,0.00,Acu-Link.com,2013-02-23 01:03:00,
2013-02-22 17:19:00,56.5,39.6,30.03,NNW,337,5.8,-999.0,53,-99.99,,,0.00,Acu-Link.com,2013-02-23 01:19:00,
2013-02-22 17:34:00,55.4,39.0,30.03,West,270,9.4,-999.0,54,-99.99,,,0.00,Acu-Link.com,2013-02-23 01:34:00,
2013-02-22 17:49:00,55.0,38.7,30.02,South,180,8.9,-999.0,54,-99.99,,,0.00,Acu-Link.com,2013-02-23 01:49:00,
2013-02-22 18:04:00,54.1,38.8,30.03,WSW,247,4.2,-999.0,56,-99.99,,,0.00,Acu-Link.com,2013-02-23 02:04:00,
2013-02-22 18:19:00,53.6,38.7,30.04,West,270,4.2,-999.0,57,-99.99,,,0.00,Acu-Link.com,2013-02-23 02:19:00,
2013-02-22 18:35:00,53.2,38.8,30.04,NNE,22,1.7,-999.0,58,-99.99,,,0.00,Acu-Link.com,2013-02-23 02:35:00,
2013-02-22 18:50:00,52.9,39.4,30.04,WSW,247,3.2,-999.0,60,-99.99,,,0.00,Acu-Link.com,2013-02-23 02:50:00,
2013-02-22 19:05:00,52.3,39.3,30.04,West,270,6.3,-999.0,61,-99.99,,,0.00,Acu-Link.com,2013-02-23 03:05:00,
2013-02-22 19:20:00,51.8,39.6,30.06,West,270,6.3,-999.0,63,-99.99,,,0.00,Acu-Link.com,2013-02-23 03:20:00,
2013-02-22 19:36:00,51.1,39.4,30.05,WSW,247,8.9,-999.0,64,-99.99,,,0.00,Acu-Link.com,2013-02-23 03:36:00,
2013-02-22 19:51:00,50.5,39.6,30.03,West,270,9.4,-999.0,66,-99.99,,,0.00,Acu-Link.com,2013-02-23 03:51:00,
2013-02-22 20:06:00,49.8,39.7,30.04,East,90,8.9,-999.0,68,-99.99,,,0.00,Acu-Link.com,2013-02-23 04:06:00,
2013-02-22 20:21:00,49.1,39.4,30.04,WSW,247,6.3,-999.0,69,-99.99,,,0.00,Acu-Link.com,2013-02-23 04:21:00,
2013-02-22 20:37:00,48.6,39.6,30.06,West,270,9.9,-999.0,71,-99.99,,,0.00,Acu-Link.com,2013-02-23 04:37:00,
2013-02-22 20:52:00,48.0,39.4,30.05,ESE,112,6.3,-999.0,72,-99.99,,,0.00,Acu-Link.com,2013-02-23 04:52:00,
2013-02-22 21:07:00,47.8,39.2,30.06,West,270,5.3,-999.0,72,-99.99,,,0.00,Acu-Link.com,2013-02-23 05:07:00,
2013-02-22 21:23:00,47.7,39.1,30.06,SW,225,6.3,-999.0,72,-99.99,,,0.00,Acu-Link.com,2013-02-23 05:23:00,
2013-02-22 21:38:00,47.1,38.9,30.06,WNW,292,8.3,-999.0,73,-99.99,,,0.00,Acu-Link.com,2013-02-23 05:38:00,
2013-02-22 21:53:00,46.6,38.8,30.06,West,270,11.4,-999.0,74,-99.99,,,0.00,Acu-Link.com,2013-02-23 05:53:00,
2013-02-22 22:08:00,46.9,38.7,30.07,NW,315,11.4,-999.0,73,-99.99,,,0.00,Acu-Link.com,2013-02-23 06:08:00,
2013-02-22 22:39:00,46.4,37.9,30.07,West,270,9.9,-999.0,72,-99.99,,,0.00,Acu-Link.com,2013-02-23 06:39:00,
2013-02-22 22:54:00,46.4,37.9,30.08,SSW,202,9.9,-999.0,72,-99.99,,,0.00,Acu-Link.com,2013-02-23 06:54:00,
2013-02-22 23:09:00,46.0,37.5,30.07,WSW,247,5.8,-999.0,72,-99.99,,,0.00,Acu-Link.com,2013-02-23 07:09:00,
2013-02-22 23:25:00,45.3,37.2,30.06,NNW,337,8.3,-999.0,73,-99.99,,,0.00,Acu-Link.com,2013-02-23 07:25:00,
2013-02-22 23:40:00,44.6,37.2,30.05,West,270,8.3,-999.0,75,-99.99,,,0.00,Acu-Link.com,2013-02-23 07:40:00,
2013-02-22 23:55:00,44.1,37.0,30.05,SW,225,11.9,-999.0,76,-99.99,,,0.00,Acu-Link.com,2013-02-23 07:55:00,